Lewistown, MT

3:38 PM MDT on May 22, 2017 (GMT -0600)
Lewistown Municipal

Weather History for KLWT - December, 2013

Change the Weather History Date:

Thursday, December 12, 2013

  Actual Average Record
Temperature  
Mean Temperature 38 °F 23 °F  
Max Temperature 41 °F 34 °F 60 °F (1924)
Min Temperature 35 °F 13 °F -23 °F (1922)
Degree Days  
Heating Degree Days 27 42  
Month to date heating degree days 677 487  
Since 1 July heating degree days 2655 2615  
Cooling Degree Days 0 0  
Month to date cooling degree days 0 0  
Year to date cooling degree days 277 210  
Moisture  
Dew Point 23 °F    
Average Humidity 62    
Maximum Humidity 69    
Minimum Humidity 54    
Precipitation  
Precipitation 0.00 in 0.02 in 0.96 in (1937)
Month to date precipitation 0.30 0.25  
Year to date precipitation 22.13 16.44  
Snow  
Snow 0.00 in - - ()
Snow Depth 4.00 in    
Sea Level Pressure  
Sea Level Pressure 29.99 in    
Wind  
Wind Speed 14 mph (WSW)    
Max Wind Speed 22 mph    
Max Gust Speed -    
Visibility 10 miles    
Events      
T = Trace of Precipitation, MM = Missing Value Source: NWS Daily Summary

Daily Weather History Graph

Daily Weather History Graph

Search for Another Location

Airport or City:

Trip Planner

Search our weather history database for the weather conditions in past years. The results will help you decide how hot, cold, wet, or windy it might be!

Date:

Astronomy

Dec. 12, 2013 Rise Set
Actual Time 7:54 AM MST 4:28 PM MST
Civil Twilight 7:19 AM MST 5:03 PM MST
Nautical Twilight 6:40 AM MST 5:42 PM MST
Astronomical Twilight 6:03 AM MST 6:19 PM MST
Moon 1:49 PM MST (12/12) 3:07 AM MST (12/12)
Length of Visible Light 9h 44m
Length of Day
8h 33m
Waxing Gibbous, 81% of the Moon is Illuminated
Dec 12
Waxing Gibbous
Dec 17
Full
Dec 25
Last Quarter
Jan 1
New
Jan 7
First Quarter

Hourly Weather History & Observations

Time (MST) Temp. Windchill Dew Point Humidity Pressure Visibility Wind Dir Wind Speed Gust Speed Precip Events Conditions
12:54 AM 35.1 °F 23.5 °F 23.0 °F 61% 30.13 in 10.0 mi WSW 21.9 mph - N/A   Partly Cloudy
1:54 AM 36.0 °F 26.3 °F 23.0 °F 59% 30.11 in 10.0 mi WSW 16.1 mph - N/A   Clear
2:54 AM 32.0 °F 21.2 °F 21.9 °F 66% 30.14 in 10.0 mi WSW 16.1 mph - N/A   Clear
3:54 AM 28.9 °F 19.2 °F 19.9 °F 69% 30.14 in 10.0 mi WSW 11.5 mph - N/A   Clear
4:54 AM 30.9 °F 27.5 °F 21.0 °F 67% 30.14 in 10.0 mi NW 3.5 mph - N/A   Clear
5:54 AM 32.0 °F 26.4 °F 21.0 °F 64% 30.11 in 10.0 mi SW 5.8 mph - N/A   Clear
6:54 AM 33.1 °F 27.7 °F 21.9 °F 64% 30.10 in 10.0 mi West 5.8 mph - N/A   Clear
7:54 AM 34.0 °F 27.2 °F 21.9 °F 61% 30.09 in 10.0 mi West 8.1 mph - N/A   Clear
8:54 AM 35.1 °F 28.6 °F 23.0 °F 61% 30.09 in 10.0 mi West 8.1 mph - N/A   Clear
9:54 AM 33.1 °F 28.7 °F 23.0 °F 66% 30.08 in 10.0 mi East 4.6 mph - N/A   Clear
11:59 AM - - - N/A% - - North - - N/A   Unknown
12:54 PM - - - N/A% - - North - - N/A   Unknown
1:54 PM 39.0 °F 29.9 °F 25.0 °F 57% 29.92 in 10.0 mi WSW 17.3 mph - N/A   Unknown
2:54 PM 39.9 °F 31.8 °F 25.0 °F 55% 29.90 in 10.0 mi WSW 15.0 mph - N/A   Clear
3:54 PM 39.9 °F 31.4 °F 25.0 °F 55% 29.88 in 10.0 mi WSW 16.1 mph - N/A   Clear
4:54 PM 39.0 °F 29.6 °F 26.1 °F 60% 29.89 in 10.0 mi WSW 18.4 mph - N/A   Clear
5:54 PM 37.9 °F 27.9 °F 25.0 °F 60% 29.87 in 10.0 mi WSW 19.6 mph - N/A   Clear
6:54 PM 37.9 °F 27.6 °F 25.0 °F 60% 29.86 in 10.0 mi WSW 20.7 mph - N/A   Clear
7:54 PM 37.9 °F 27.9 °F 24.1 °F 57% 29.86 in 10.0 mi WSW 19.6 mph - N/A   Clear
8:54 PM 37.0 °F 27.0 °F 23.0 °F 57% 29.84 in 10.0 mi WSW 18.4 mph - N/A   Clear
9:54 PM 36.0 °F 25.3 °F 23.0 °F 59% 29.84 in 10.0 mi WSW 19.6 mph - N/A   Clear
10:54 PM 36.0 °F 26.3 °F 23.0 °F 59% 29.85 in 10.0 mi WSW 16.1 mph - N/A   Clear
11:54 PM 35.1 °F 28.6 °F 23.0 °F 61% 29.85 in 10.0 mi WSW 8.1 mph - N/A   Clear